Location: Olympia
(47.0371°N, 122.8993°W)
Time: 04:01:02
(UTC-08:00)

ARIANE 6 FM1 Upper Stage - Pass Details

Date: 13 December 2025
Orbit: 522 x 610 km, 62.0° (Epoch: 13 January)

Event Time Altitude Azimuth Distance (km) Brightness Sun altitude
Rises 06:31:46 0° 197° (SSW) 2,692 6.2 -12.6°
Reaches altitude 10° 06:34:07 10° 188° (S) 1,791 5.4 -12.2°
Maximum altitude 06:37:45 34° 123° (ESE) 898 4.5 -11.6°
Drops below altitude 10° 06:41:21 10° 58° (ENE) 1,773 5.7 -11.1°
Sets 06:43:40 0° 49° (NE) 2,661 6.5 -10.7°
